Year,Month,Day,Hour,Minute,Value (Times are PST for temperature in C)
2018,06,11,00,00,9.20
2018,06,11,00,01,9.20
2018,06,11,00,02,9.10
2018,06,11,00,03,9.10
2018,06,11,00,04,9.10
2018,06,11,00,05,9.10
2018,06,11,00,06,9.10
2018,06,11,00,07,9.00
2018,06,11,00,08,9.00
2018,06,11,00,09,9.00
2018,06,11,00,10,8.90
2018,06,11,00,11,8.90
2018,06,11,00,12,8.80
2018,06,11,00,13,8.80
2018,06,11,00,14,8.80
2018,06,11,00,15,8.70
2018,06,11,00,16,8.70
2018,06,11,00,17,8.70
2018,06,11,00,18,8.70
2018,06,11,00,19,8.60
2018,06,11,00,20,8.60
2018,06,11,00,21,8.60
2018,06,11,00,22,8.60
2018,06,11,00,23,8.60
2018,06,11,00,24,8.50
2018,06,11,00,25,8.50
2018,06,11,00,26,8.50
2018,06,11,00,27,8.50
2018,06,11,00,28,8.50
2018,06,11,00,29,8.40
2018,06,11,00,30,8.40
2018,06,11,00,31,8.40
2018,06,11,00,32,8.40
2018,06,11,00,33,8.40
2018,06,11,00,34,8.40
2018,06,11,00,35,8.30
2018,06,11,00,36,8.30
2018,06,11,00,37,8.30
2018,06,11,00,38,8.30
2018,06,11,00,39,8.30
2018,06,11,00,40,8.30
2018,06,11,00,41,8.30
2018,06,11,00,42,8.30
2018,06,11,00,43,8.20
2018,06,11,00,44,8.20
2018,06,11,00,45,8.20
2018,06,11,00,46,8.20
2018,06,11,00,47,8.20
2018,06,11,00,48,8.10
2018,06,11,00,49,8.10
2018,06,11,00,50,8.10
2018,06,11,00,51,8.10
2018,06,11,00,52,8.10
2018,06,11,00,53,8.00
2018,06,11,00,54,8.00
2018,06,11,00,55,8.00
2018,06,11,00,56,7.90
2018,06,11,00,57,7.90
2018,06,11,00,58,7.90
2018,06,11,00,59,7.90
2018,06,11,01,00,7.90
2018,06,11,01,01,7.80
2018,06,11,01,02,7.80
2018,06,11,01,03,7.80
2018,06,11,01,04,7.80
2018,06,11,01,05,7.80
2018,06,11,01,06,7.80
2018,06,11,01,07,7.70
2018,06,11,01,08,7.70
2018,06,11,01,09,7.70
2018,06,11,01,10,7.70
2018,06,11,01,11,7.70
2018,06,11,01,12,7.70
2018,06,11,01,13,7.70
2018,06,11,01,14,7.70
2018,06,11,01,15,7.70
2018,06,11,01,16,7.70
2018,06,11,01,17,7.60
2018,06,11,01,18,7.60
2018,06,11,01,19,7.60
2018,06,11,01,20,7.60
2018,06,11,01,21,7.60
2018,06,11,01,22,7.60
2018,06,11,01,23,7.60
2018,06,11,01,24,7.60
2018,06,11,01,25,7.60
2018,06,11,01,26,7.60
2018,06,11,01,27,7.50
2018,06,11,01,28,7.50
2018,06,11,01,29,7.50
2018,06,11,01,30,7.40
2018,06,11,01,31,7.40
2018,06,11,01,32,7.40
2018,06,11,01,33,7.40
2018,06,11,01,34,7.30
2018,06,11,01,35,7.30
2018,06,11,01,36,7.30
2018,06,11,01,37,7.30
2018,06,11,01,38,7.30
2018,06,11,01,39,7.30
2018,06,11,01,40,7.30
2018,06,11,01,41,7.30
2018,06,11,01,42,7.30
2018,06,11,01,43,7.30
2018,06,11,01,44,7.30
2018,06,11,01,45,7.30
2018,06,11,01,46,7.20
2018,06,11,01,47,7.20
2018,06,11,01,48,7.20
2018,06,11,01,49,7.20
2018,06,11,01,50,7.20
2018,06,11,01,51,7.10
2018,06,11,01,52,7.10
2018,06,11,01,53,7.00
2018,06,11,01,54,7.00
2018,06,11,01,55,6.90
2018,06,11,01,56,6.90
2018,06,11,01,57,6.90
2018,06,11,01,58,6.90
2018,06,11,01,59,6.80
2018,06,11,02,00,6.80
2018,06,11,02,01,6.80
2018,06,11,02,02,6.80
2018,06,11,02,03,6.80
2018,06,11,02,04,6.80
2018,06,11,02,05,6.80
2018,06,11,02,06,6.80
2018,06,11,02,07,6.80
2018,06,11,02,08,6.80
2018,06,11,02,09,6.80
2018,06,11,02,10,6.80
2018,06,11,02,11,6.80
2018,06,11,02,12,6.80
2018,06,11,02,13,6.80
2018,06,11,02,14,6.70
2018,06,11,02,15,6.70
2018,06,11,02,16,6.70
2018,06,11,02,17,6.70
2018,06,11,02,18,6.70
2018,06,11,02,19,6.60
2018,06,11,02,20,6.60
2018,06,11,02,21,6.60
2018,06,11,02,22,6.60
2018,06,11,02,23,6.60
2018,06,11,02,24,6.50
2018,06,11,02,25,6.50
2018,06,11,02,26,6.50
2018,06,11,02,27,6.40
2018,06,11,02,28,6.40
2018,06,11,02,29,6.40
2018,06,11,02,30,6.40
2018,06,11,02,31,6.40
2018,06,11,02,32,6.30
2018,06,11,02,33,6.30
2018,06,11,02,34,6.30
2018,06,11,02,35,6.30
2018,06,11,02,36,6.30
2018,06,11,02,37,6.30
2018,06,11,02,38,6.20
2018,06,11,02,39,6.20
2018,06,11,02,40,6.20
2018,06,11,02,41,6.20
2018,06,11,02,42,6.20
2018,06,11,02,43,6.20
2018,06,11,02,44,6.20
2018,06,11,02,45,6.20
2018,06,11,02,46,6.20
2018,06,11,02,47,6.20
2018,06,11,02,48,6.10
2018,06,11,02,49,6.10
2018,06,11,02,50,6.10
2018,06,11,02,51,6.10
2018,06,11,02,52,6.10
2018,06,11,02,53,6.10
2018,06,11,02,54,6.10
2018,06,11,02,55,6.10
2018,06,11,02,56,6.10
2018,06,11,02,57,6.10
2018,06,11,02,58,6.10
2018,06,11,02,59,6.10
2018,06,11,03,00,6.10
2018,06,11,03,01,6.10
2018,06,11,03,02,6.00
2018,06,11,03,03,6.00
2018,06,11,03,04,6.00
2018,06,11,03,05,6.00
2018,06,11,03,06,5.90
2018,06,11,03,07,5.90
2018,06,11,03,08,5.90
2018,06,11,03,09,5.90
2018,06,11,03,10,5.90
2018,06,11,03,11,5.80
2018,06,11,03,12,5.80
2018,06,11,03,13,5.80
2018,06,11,03,14,5.80
2018,06,11,03,15,5.80
2018,06,11,03,16,5.70
2018,06,11,03,17,5.70
2018,06,11,03,18,5.60
2018,06,11,03,19,5.60
2018,06,11,03,20,5.60
2018,06,11,03,21,5.60
2018,06,11,03,22,5.50
2018,06,11,03,23,5.50
2018,06,11,03,24,5.50
2018,06,11,03,25,5.40
2018,06,11,03,26,5.40
2018,06,11,03,27,5.40
2018,06,11,03,28,5.40
2018,06,11,03,29,5.40
2018,06,11,03,30,5.40
2018,06,11,03,31,5.30
2018,06,11,03,32,5.30
2018,06,11,03,33,5.30
2018,06,11,03,34,5.30
2018,06,11,03,35,5.30
2018,06,11,03,36,5.30
2018,06,11,03,37,5.30
2018,06,11,03,38,5.20
2018,06,11,03,39,5.20
2018,06,11,03,40,5.20
2018,06,11,03,41,5.20
2018,06,11,03,42,5.20
2018,06,11,03,43,5.20
2018,06,11,03,44,5.20
2018,06,11,03,45,5.20
2018,06,11,03,46,5.20
2018,06,11,03,47,5.20
2018,06,11,03,48,5.20
2018,06,11,03,49,5.20
2018,06,11,03,50,5.20
2018,06,11,03,51,5.20
2018,06,11,03,52,5.20
2018,06,11,03,53,5.20
2018,06,11,03,54,5.20
2018,06,11,03,55,5.20
2018,06,11,03,56,5.20
2018,06,11,03,57,5.20
2018,06,11,03,58,5.30
2018,06,11,03,59,5.30
2018,06,11,04,00,5.30
2018,06,11,04,01,5.30
2018,06,11,04,02,5.30
2018,06,11,04,03,5.30
2018,06,11,04,04,5.30
2018,06,11,04,05,5.30
2018,06,11,04,06,5.30
2018,06,11,04,07,5.30
2018,06,11,04,08,5.30
2018,06,11,04,09,5.30
2018,06,11,04,10,5.20
2018,06,11,04,11,5.20
2018,06,11,04,12,5.20
2018,06,11,04,13,5.20
2018,06,11,04,14,5.20
2018,06,11,04,15,5.20
2018,06,11,04,16,5.20
2018,06,11,04,17,5.20
2018,06,11,04,18,5.20
2018,06,11,04,19,5.20
2018,06,11,04,20,5.10
2018,06,11,04,21,5.10
2018,06,11,04,22,5.10
2018,06,11,04,23,5.10
2018,06,11,04,24,5.10
2018,06,11,04,25,5.10
2018,06,11,04,26,5.10
2018,06,11,04,27,5.10
2018,06,11,04,28,5.00
2018,06,11,04,29,5.00
2018,06,11,04,30,5.00
2018,06,11,04,31,5.00
2018,06,11,04,32,5.00
2018,06,11,04,33,4.90
2018,06,11,04,34,4.90
2018,06,11,04,35,4.90
2018,06,11,04,36,4.90
2018,06,11,04,37,4.90
2018,06,11,04,38,4.90
2018,06,11,04,39,4.80
2018,06,11,04,40,4.80
2018,06,11,04,41,4.80
2018,06,11,04,42,4.80
2018,06,11,04,43,4.70
2018,06,11,04,44,4.70
2018,06,11,04,45,4.70
2018,06,11,04,46,4.60
2018,06,11,04,47,4.60
2018,06,11,04,48,4.60
2018,06,11,04,49,4.60
2018,06,11,04,50,4.60
2018,06,11,04,51,4.60
2018,06,11,04,52,4.60
2018,06,11,04,53,4.50
2018,06,11,04,54,4.50
2018,06,11,04,55,4.50
2018,06,11,04,56,4.50
2018,06,11,04,57,4.50
2018,06,11,04,58,4.50
2018,06,11,04,59,4.50
2018,06,11,05,00,4.50
2018,06,11,05,01,4.50
2018,06,11,05,02,4.50
2018,06,11,05,03,4.50
2018,06,11,05,04,4.60
2018,06,11,05,05,4.60
2018,06,11,05,06,4.60
2018,06,11,05,07,4.60
2018,06,11,05,08,4.60
2018,06,11,05,09,4.70
2018,06,11,05,10,4.70
2018,06,11,05,11,4.70
2018,06,11,05,12,4.70
2018,06,11,05,13,4.60
2018,06,11,05,14,4.60
2018,06,11,05,15,4.60
2018,06,11,05,16,4.60
2018,06,11,05,17,4.60
2018,06,11,05,18,4.50
2018,06,11,05,19,4.50
2018,06,11,05,20,4.50
2018,06,11,05,21,4.50
2018,06,11,05,22,4.50
2018,06,11,05,23,4.50
2018,06,11,05,24,4.50
2018,06,11,05,25,4.50
2018,06,11,05,26,4.50
2018,06,11,05,27,4.50
2018,06,11,05,28,4.50
2018,06,11,05,29,4.50
2018,06,11,05,30,4.50
2018,06,11,05,31,4.50
2018,06,11,05,32,4.50
2018,06,11,05,33,4.40
2018,06,11,05,34,4.50
2018,06,11,05,35,4.50
2018,06,11,05,36,4.50
2018,06,11,05,37,4.60
2018,06,11,05,38,4.60
2018,06,11,05,39,4.60
2018,06,11,05,40,4.60
2018,06,11,05,41,4.50
2018,06,11,05,42,4.50
2018,06,11,05,43,4.40
2018,06,11,05,44,4.40
2018,06,11,05,45,4.40
2018,06,11,05,46,4.30
2018,06,11,05,47,4.30
2018,06,11,05,48,4.30
2018,06,11,05,49,4.30
2018,06,11,05,50,4.30
2018,06,11,05,51,4.30
2018,06,11,05,52,4.30
2018,06,11,05,53,4.30
2018,06,11,05,54,4.40
2018,06,11,05,55,4.40
2018,06,11,05,56,4.50
2018,06,11,05,57,4.50
2018,06,11,05,58,4.60
2018,06,11,05,59,4.60
2018,06,11,06,00,4.60
2018,06,11,06,01,4.70
2018,06,11,06,02,4.70
2018,06,11,06,03,4.70
2018,06,11,06,04,4.70
2018,06,11,06,05,4.80
2018,06,11,06,06,4.80
2018,06,11,06,07,4.80
2018,06,11,06,08,4.90
2018,06,11,06,09,4.90
2018,06,11,06,10,4.90
2018,06,11,06,11,5.00
2018,06,11,06,12,5.00
2018,06,11,06,13,5.00
2018,06,11,06,14,5.10
2018,06,11,06,15,5.10
2018,06,11,06,16,5.10
2018,06,11,06,17,5.10
2018,06,11,06,18,5.10
2018,06,11,06,19,5.10
2018,06,11,06,20,5.10
2018,06,11,06,21,5.10
2018,06,11,06,22,5.10
2018,06,11,06,23,5.10
2018,06,11,06,24,5.10
2018,06,11,06,25,5.10
2018,06,11,06,26,5.10
2018,06,11,06,27,5.10
2018,06,11,06,28,5.10
2018,06,11,06,29,5.10
2018,06,11,06,30,5.10
2018,06,11,06,31,5.10
2018,06,11,06,32,5.10
2018,06,11,06,33,5.10
2018,06,11,06,34,5.10
2018,06,11,06,35,5.10
2018,06,11,06,36,5.10
2018,06,11,06,37,5.10
2018,06,11,06,38,5.10
2018,06,11,06,39,5.10
2018,06,11,06,40,5.10
2018,06,11,06,41,5.20
2018,06,11,06,42,5.20
2018,06,11,06,43,5.20
2018,06,11,06,44,5.30
2018,06,11,06,45,5.30
2018,06,11,06,46,5.30
2018,06,11,06,47,5.40
2018,06,11,06,48,5.40
2018,06,11,06,49,5.50
2018,06,11,06,50,5.60
2018,06,11,06,51,5.60
2018,06,11,06,52,5.70
2018,06,11,06,53,5.70
2018,06,11,06,54,5.80
2018,06,11,06,55,5.80
2018,06,11,06,56,5.90
2018,06,11,06,57,5.90
2018,06,11,06,58,6.00
2018,06,11,06,59,6.10
2018,06,11,07,00,6.10
2018,06,11,07,01,6.20
2018,06,11,07,02,6.30
2018,06,11,07,03,6.30
2018,06,11,07,04,6.40
2018,06,11,07,05,6.50
2018,06,11,07,06,6.60
2018,06,11,07,07,6.70
2018,06,11,07,08,6.80
2018,06,11,07,09,6.80
2018,06,11,07,10,6.90
2018,06,11,07,11,7.00
2018,06,11,07,12,7.10
2018,06,11,07,13,7.20
2018,06,11,07,14,7.20
2018,06,11,07,15,7.30
2018,06,11,07,16,7.40
2018,06,11,07,17,7.60
2018,06,11,07,18,7.70
2018,06,11,07,19,7.80
2018,06,11,07,20,7.80
2018,06,11,07,21,7.90
2018,06,11,07,22,8.00
2018,06,11,07,23,8.00
2018,06,11,07,24,8.10
2018,06,11,07,25,8.10
2018,06,11,07,26,8.20
2018,06,11,07,27,8.20
2018,06,11,07,28,8.30
2018,06,11,07,29,8.30
2018,06,11,07,30,8.40
2018,06,11,07,31,8.50
2018,06,11,07,32,8.50
2018,06,11,07,33,8.60
2018,06,11,07,34,8.70
2018,06,11,07,35,8.80
2018,06,11,07,36,8.90
2018,06,11,07,37,9.00
2018,06,11,07,38,9.10
2018,06,11,07,39,9.20
2018,06,11,07,40,9.30
2018,06,11,07,41,9.30
2018,06,11,07,42,9.40
2018,06,11,07,43,9.50
2018,06,11,07,44,9.50
2018,06,11,07,45,9.60
2018,06,11,07,46,9.60
2018,06,11,07,47,9.60
2018,06,11,07,48,9.70
2018,06,11,07,49,9.70
2018,06,11,07,50,9.80
2018,06,11,07,51,9.80
2018,06,11,07,52,9.90
2018,06,11,07,53,9.90
2018,06,11,07,54,10.00
2018,06,11,07,55,10.10
2018,06,11,07,56,10.20
2018,06,11,07,57,10.30
2018,06,11,07,58,10.40
2018,06,11,07,59,10.50
2018,06,11,08,00,10.60
2018,06,11,08,01,10.60
2018,06,11,08,02,10.60
2018,06,11,08,03,10.70
2018,06,11,08,04,10.80
2018,06,11,08,05,10.90
2018,06,11,08,06,10.90
2018,06,11,08,07,11.00
2018,06,11,08,08,11.00
2018,06,11,08,09,11.10
2018,06,11,08,10,11.20
2018,06,11,08,11,11.20
2018,06,11,08,12,11.30
2018,06,11,08,13,11.30
2018,06,11,08,14,11.40
2018,06,11,08,15,11.40
2018,06,11,08,16,11.40
2018,06,11,08,17,11.50
2018,06,11,08,18,11.60
2018,06,11,08,19,11.80
2018,06,11,08,20,11.90
2018,06,11,08,21,12.00
2018,06,11,08,22,12.20
2018,06,11,08,23,12.30
2018,06,11,08,24,12.30
2018,06,11,08,25,12.40
2018,06,11,08,26,12.40
2018,06,11,08,27,12.50
2018,06,11,08,28,12.50
2018,06,11,08,29,12.60
2018,06,11,08,30,12.70
2018,06,11,08,31,12.80
2018,06,11,08,32,12.90
2018,06,11,08,33,12.90
2018,06,11,08,34,12.80
2018,06,11,08,35,12.80
2018,06,11,08,36,12.70
2018,06,11,08,37,12.70
2018,06,11,08,38,12.70
2018,06,11,08,39,12.70
2018,06,11,08,40,12.70
2018,06,11,08,41,12.80
2018,06,11,08,42,12.80
2018,06,11,08,43,12.80
2018,06,11,08,44,12.80
2018,06,11,08,45,12.80
2018,06,11,08,46,12.80
2018,06,11,08,47,12.80
2018,06,11,08,48,12.90
2018,06,11,08,49,12.90
2018,06,11,08,50,12.90
2018,06,11,08,51,13.00
2018,06,11,08,52,13.00
2018,06,11,08,53,13.00
2018,06,11,08,54,13.00
2018,06,11,08,55,13.00
2018,06,11,08,56,13.00
2018,06,11,08,57,13.10
2018,06,11,08,58,13.10
2018,06,11,08,59,13.10
2018,06,11,09,00,13.10
2018,06,11,09,01,13.20
2018,06,11,09,02,13.20
2018,06,11,09,03,13.30
2018,06,11,09,04,13.30
2018,06,11,09,05,13.40
2018,06,11,09,06,13.40
2018,06,11,09,07,13.50
2018,06,11,09,08,13.60
2018,06,11,09,09,13.60
2018,06,11,09,10,13.60
2018,06,11,09,11,13.60
2018,06,11,09,12,13.70
2018,06,11,09,13,13.80
2018,06,11,09,14,14.00
2018,06,11,09,15,14.10
2018,06,11,09,16,14.10
2018,06,11,09,17,14.10
2018,06,11,09,18,14.10
2018,06,11,09,19,14.00
2018,06,11,09,20,14.00
2018,06,11,09,21,14.00
2018,06,11,09,22,14.10
2018,06,11,09,23,14.10
2018,06,11,09,24,14.20
2018,06,11,09,25,14.20
2018,06,11,09,26,14.30
2018,06,11,09,27,14.30
2018,06,11,09,28,14.40
2018,06,11,09,29,14.50
2018,06,11,09,30,14.60
2018,06,11,09,31,14.70
2018,06,11,09,32,14.80
2018,06,11,09,33,14.80
2018,06,11,09,34,14.80
2018,06,11,09,35,14.80
2018,06,11,09,36,14.80
2018,06,11,09,37,14.80
2018,06,11,09,38,14.80
2018,06,11,09,39,14.90
2018,06,11,09,40,14.90
2018,06,11,09,41,14.90
2018,06,11,09,42,14.80
2018,06,11,09,43,14.80
2018,06,11,09,44,14.80
2018,06,11,09,45,14.80
2018,06,11,09,46,14.90
2018,06,11,09,47,14.90
2018,06,11,09,48,15.00
2018,06,11,09,49,15.10
2018,06,11,09,50,15.10
2018,06,11,09,51,15.10
2018,06,11,09,52,15.10
2018,06,11,09,53,15.10
2018,06,11,09,54,15.10
2018,06,11,09,55,15.10
2018,06,11,09,56,15.10
2018,06,11,09,57,15.10
2018,06,11,09,58,15.20
2018,06,11,09,59,15.10
2018,06,11,10,00,15.10
2018,06,11,10,01,15.00
2018,06,11,10,02,15.00
2018,06,11,10,03,14.90
2018,06,11,10,04,15.00
2018,06,11,10,05,15.10
2018,06,11,10,06,15.20
2018,06,11,10,07,15.20
2018,06,11,10,08,15.20
2018,06,11,10,09,15.20
2018,06,11,10,10,15.20
2018,06,11,10,11,15.20
2018,06,11,10,12,15.20
2018,06,11,10,13,15.30
2018,06,11,10,14,15.30
2018,06,11,10,15,15.40
2018,06,11,10,16,15.50
2018,06,11,10,17,15.50
2018,06,11,10,18,15.60
2018,06,11,10,19,15.60
2018,06,11,10,20,15.70
2018,06,11,10,21,15.70
2018,06,11,10,22,15.60
2018,06,11,10,23,15.60
2018,06,11,10,24,15.50
2018,06,11,10,25,15.30
2018,06,11,10,26,15.20
2018,06,11,10,27,15.10
2018,06,11,10,28,15.00
2018,06,11,10,29,14.90
2018,06,11,10,30,14.80
2018,06,11,10,31,14.80
2018,06,11,10,32,14.70
2018,06,11,10,33,14.70
2018,06,11,10,34,14.70
2018,06,11,10,35,14.70
2018,06,11,10,36,14.70
2018,06,11,10,37,14.70
2018,06,11,10,38,14.70
2018,06,11,10,39,14.70
2018,06,11,10,40,14.60
2018,06,11,10,41,14.60
2018,06,11,10,42,14.60
2018,06,11,10,43,14.60
2018,06,11,10,44,14.60
2018,06,11,10,45,14.50
2018,06,11,10,46,14.40
2018,06,11,10,47,14.40
2018,06,11,10,48,14.30
2018,06,11,10,49,14.30
2018,06,11,10,50,14.30
2018,06,11,10,51,14.30
2018,06,11,10,52,14.30
2018,06,11,10,53,14.40
2018,06,11,10,54,14.40
2018,06,11,10,55,14.50
2018,06,11,10,56,14.50
2018,06,11,10,57,14.60
2018,06,11,10,58,14.60
2018,06,11,10,59,14.60
2018,06,11,11,00,14.70
2018,06,11,11,01,14.70
2018,06,11,11,02,14.70
2018,06,11,11,03,14.80
2018,06,11,11,04,14.80
2018,06,11,11,05,14.80
2018,06,11,11,06,14.90
2018,06,11,11,07,14.90
2018,06,11,11,08,14.90
2018,06,11,11,09,14.80
2018,06,11,11,10,14.80
2018,06,11,11,11,14.80
2018,06,11,11,12,14.80
2018,06,11,11,13,14.80
2018,06,11,11,14,14.80
2018,06,11,11,15,14.80
2018,06,11,11,16,14.80
2018,06,11,11,17,14.80
2018,06,11,11,18,14.80
2018,06,11,11,19,14.90
2018,06,11,11,20,15.00
2018,06,11,11,21,15.10
2018,06,11,11,22,15.20
2018,06,11,11,23,15.30
2018,06,11,11,24,15.40
2018,06,11,11,25,15.50
2018,06,11,11,26,15.50
2018,06,11,11,27,15.40
2018,06,11,11,28,15.40
2018,06,11,11,29,15.30
2018,06,11,11,30,15.30
2018,06,11,11,31,15.30
2018,06,11,11,32,15.40
2018,06,11,11,33,15.40
2018,06,11,11,34,15.50
2018,06,11,11,35,15.50
2018,06,11,11,36,15.60
2018,06,11,11,37,15.60
2018,06,11,11,38,15.60
2018,06,11,11,39,15.60
2018,06,11,11,40,15.60
2018,06,11,11,41,15.50
2018,06,11,11,42,15.40
2018,06,11,11,43,15.40
2018,06,11,11,44,15.40
2018,06,11,11,45,15.30
2018,06,11,11,46,15.40
2018,06,11,11,47,15.50
2018,06,11,11,48,15.60
2018,06,11,11,49,15.60
2018,06,11,11,50,15.70
2018,06,11,11,51,15.70
2018,06,11,11,52,15.80
2018,06,11,11,53,15.90
2018,06,11,11,54,16.00
2018,06,11,11,55,16.00
2018,06,11,11,56,16.00
2018,06,11,11,57,16.00
2018,06,11,11,58,15.90
2018,06,11,11,59,15.80
2018,06,11,12,00,15.80
2018,06,11,12,01,15.70
2018,06,11,12,02,15.70
2018,06,11,12,03,15.70
2018,06,11,12,04,15.70
2018,06,11,12,05,15.60
2018,06,11,12,06,15.60
2018,06,11,12,07,15.60
2018,06,11,12,08,15.60
2018,06,11,12,09,15.60
2018,06,11,12,10,15.60
2018,06,11,12,11,15.60
2018,06,11,12,12,15.60
2018,06,11,12,13,15.70
2018,06,11,12,14,15.70
2018,06,11,12,15,15.90
2018,06,11,12,16,16.10
2018,06,11,12,17,16.20
2018,06,11,12,18,16.20
2018,06,11,12,19,16.20
2018,06,11,12,20,16.10
2018,06,11,12,21,16.00
2018,06,11,12,22,16.00
2018,06,11,12,23,16.10
2018,06,11,12,24,16.10
2018,06,11,12,25,16.10
2018,06,11,12,26,16.10
2018,06,11,12,27,16.20
2018,06,11,12,28,16.10
2018,06,11,12,29,15.90
2018,06,11,12,30,15.80
2018,06,11,12,31,15.70
2018,06,11,12,32,15.70
2018,06,11,12,33,15.50
2018,06,11,12,34,15.50
2018,06,11,12,35,15.60
2018,06,11,12,36,15.70
2018,06,11,12,37,15.80
2018,06,11,12,38,15.90
2018,06,11,12,41,16.00
2018,06,11,12,42,16.00
2018,06,11,12,43,16.00
2018,06,11,12,44,16.10
2018,06,11,12,45,16.00
2018,06,11,12,46,16.10
2018,06,11,12,47,16.10
2018,06,11,12,50,15.80
2018,06,11,12,51,15.80
2018,06,11,12,52,15.70
2018,06,11,12,53,15.70
2018,06,11,12,54,15.70
2018,06,11,12,55,15.70
2018,06,11,12,56,15.70
2018,06,11,12,57,15.70
2018,06,11,12,58,15.80
2018,06,11,12,59,15.80
2018,06,11,13,00,15.70
2018,06,11,13,01,15.70
2018,06,11,13,02,15.70
2018,06,11,13,03,15.70
2018,06,11,13,04,15.70
2018,06,11,13,05,15.70
2018,06,11,13,06,15.70
2018,06,11,13,07,15.70
2018,06,11,13,08,15.70
2018,06,11,13,09,15.60
2018,06,11,13,10,15.60
2018,06,11,13,11,15.60
2018,06,11,13,12,15.60
2018,06,11,13,13,15.70
2018,06,11,13,14,15.70
2018,06,11,13,15,15.70
2018,06,11,13,16,15.80
2018,06,11,13,17,15.90
2018,06,11,13,18,16.00
2018,06,11,13,19,16.00
2018,06,11,13,20,15.90
2018,06,11,13,21,15.90
2018,06,11,13,22,15.90
2018,06,11,13,23,15.90
2018,06,11,13,24,15.80
2018,06,11,13,25,15.80
2018,06,11,13,26,15.70
2018,06,11,13,27,15.70
2018,06,11,13,28,15.70
2018,06,11,13,29,15.60
2018,06,11,13,30,15.70
2018,06,11,13,31,15.80
2018,06,11,13,32,16.00
2018,06,11,13,33,16.10
2018,06,11,13,34,16.20
2018,06,11,13,35,16.20
2018,06,11,13,36,16.20
2018,06,11,13,37,16.20
2018,06,11,13,38,16.30
2018,06,11,13,39,16.30
2018,06,11,13,40,16.20
2018,06,11,13,41,16.20
2018,06,11,13,42,16.10
2018,06,11,13,43,16.10
2018,06,11,13,44,16.20
2018,06,11,13,45,16.10
2018,06,11,13,46,16.10
2018,06,11,13,47,16.10
2018,06,11,13,48,16.20
2018,06,11,13,49,16.20
2018,06,11,13,50,16.20
2018,06,11,13,51,16.10
2018,06,11,13,52,16.10
2018,06,11,13,53,16.10
2018,06,11,13,54,16.20
2018,06,11,13,55,16.20
2018,06,11,13,56,16.10
2018,06,11,13,57,16.10
2018,06,11,13,58,16.10
2018,06,11,13,59,16.10
2018,06,11,14,00,16.10
2018,06,11,14,01,16.10
2018,06,11,14,02,16.20
2018,06,11,14,03,16.30
2018,06,11,14,04,16.40
2018,06,11,14,05,16.40
2018,06,11,14,06,16.30
2018,06,11,14,07,16.20
2018,06,11,14,08,16.20
2018,06,11,14,09,16.20
2018,06,11,14,10,16.10
2018,06,11,14,11,16.10
2018,06,11,14,12,16.00
2018,06,11,14,13,15.90
2018,06,11,14,14,15.90
2018,06,11,14,15,15.90
2018,06,11,14,16,15.90
2018,06,11,14,17,15.90
2018,06,11,14,18,15.80
2018,06,11,14,19,15.70
2018,06,11,14,20,15.70
2018,06,11,14,21,15.70
2018,06,11,14,22,15.70
2018,06,11,14,23,15.70
2018,06,11,14,24,15.60
2018,06,11,14,25,15.50
2018,06,11,14,26,15.60
2018,06,11,14,27,15.70
2018,06,11,14,28,15.70
2018,06,11,14,29,15.80
2018,06,11,14,30,15.80
2018,06,11,14,31,15.80
2018,06,11,14,32,15.80
2018,06,11,14,33,15.70
2018,06,11,14,34,15.70
2018,06,11,14,35,15.70
2018,06,11,14,36,15.60
2018,06,11,14,37,15.50
2018,06,11,14,38,15.40
2018,06,11,14,39,15.40
2018,06,11,14,40,15.50
2018,06,11,14,41,15.50
2018,06,11,14,42,15.60
2018,06,11,14,43,15.60
2018,06,11,14,44,15.70
2018,06,11,14,45,15.70
2018,06,11,14,46,15.70
2018,06,11,14,47,15.70
2018,06,11,14,48,15.70
2018,06,11,14,49,15.70
2018,06,11,14,50,15.70
2018,06,11,14,51,15.70
2018,06,11,14,52,15.70
2018,06,11,14,53,15.70
2018,06,11,14,54,15.50
2018,06,11,14,55,15.40
2018,06,11,14,56,15.40
2018,06,11,14,57,15.40
2018,06,11,14,58,15.50
2018,06,11,14,59,15.40
2018,06,11,15,00,15.30
2018,06,11,15,01,15.30
2018,06,11,15,02,15.40
2018,06,11,15,03,15.50
2018,06,11,15,04,15.60
2018,06,11,15,05,15.60
2018,06,11,15,06,15.60
2018,06,11,15,07,15.60
2018,06,11,15,08,15.60
2018,06,11,15,09,15.50
2018,06,11,15,10,15.50
2018,06,11,15,11,15.50
2018,06,11,15,12,15.60
2018,06,11,15,13,15.60
2018,06,11,15,14,15.60
2018,06,11,15,15,15.50
2018,06,11,15,16,15.30
2018,06,11,15,17,15.10
2018,06,11,15,18,15.00
2018,06,11,15,19,15.00
2018,06,11,15,20,15.00
2018,06,11,15,21,15.10
2018,06,11,15,22,15.20
2018,06,11,15,23,15.30
2018,06,11,15,24,15.30
2018,06,11,15,25,15.20
2018,06,11,15,26,15.10
2018,06,11,15,27,15.10
2018,06,11,15,28,15.00
2018,06,11,15,29,14.90
2018,06,11,15,30,14.80
2018,06,11,15,31,14.70
2018,06,11,15,32,14.70
2018,06,11,15,33,14.70
2018,06,11,15,34,14.80
2018,06,11,15,35,14.90
2018,06,11,15,36,15.00
2018,06,11,15,37,15.00
2018,06,11,15,38,15.00
2018,06,11,15,39,15.00
2018,06,11,15,40,15.00
2018,06,11,15,41,15.00
2018,06,11,15,42,15.10
2018,06,11,15,43,15.10
2018,06,11,15,44,15.10
2018,06,11,15,45,15.20
2018,06,11,15,46,15.20
2018,06,11,15,47,15.30
2018,06,11,15,48,15.40
2018,06,11,15,49,15.40
2018,06,11,15,50,15.30
2018,06,11,15,51,15.30
2018,06,11,15,52,15.20
2018,06,11,15,53,15.20
2018,06,11,15,54,15.20
2018,06,11,15,55,15.10
2018,06,11,15,56,15.10
2018,06,11,15,57,15.10
2018,06,11,15,58,15.00
2018,06,11,15,59,15.00
2018,06,11,16,00,14.90
2018,06,11,16,01,14.90
2018,06,11,16,02,14.90
2018,06,11,16,03,14.90
2018,06,11,16,04,14.90
2018,06,11,16,05,15.00
2018,06,11,16,06,15.00
2018,06,11,16,07,14.90
2018,06,11,16,08,14.80
2018,06,11,16,09,14.80
2018,06,11,16,10,14.80
2018,06,11,16,11,14.90
2018,06,11,16,12,14.90
2018,06,11,16,13,14.80
2018,06,11,16,14,14.80
2018,06,11,16,15,14.80
2018,06,11,16,16,14.80
2018,06,11,16,17,14.80
2018,06,11,16,18,14.80
2018,06,11,16,19,14.90
2018,06,11,16,20,15.00
2018,06,11,16,21,15.10
2018,06,11,16,22,15.10
2018,06,11,16,23,15.10
2018,06,11,16,24,15.10
2018,06,11,16,25,15.10
2018,06,11,16,26,15.10
2018,06,11,16,27,15.20
2018,06,11,16,28,15.20
2018,06,11,16,29,15.30
2018,06,11,16,30,15.40
2018,06,11,16,31,15.40
2018,06,11,16,32,15.40
2018,06,11,16,33,15.40
2018,06,11,16,34,15.40
2018,06,11,16,35,15.40
2018,06,11,16,36,15.50
2018,06,11,16,37,15.50
2018,06,11,16,38,15.50
2018,06,11,16,39,15.50
2018,06,11,16,40,15.60
2018,06,11,16,41,15.70
2018,06,11,16,42,15.70
2018,06,11,16,43,15.70
2018,06,11,16,44,15.70
2018,06,11,16,45,15.70
2018,06,11,16,46,15.70
2018,06,11,16,47,15.80
2018,06,11,16,48,15.80
2018,06,11,16,49,15.90
2018,06,11,16,50,15.90
2018,06,11,16,51,16.00
2018,06,11,16,52,16.10
2018,06,11,16,53,16.10
2018,06,11,16,54,16.00
2018,06,11,16,55,16.00
2018,06,11,16,56,16.00
2018,06,11,16,57,16.10
2018,06,11,16,58,16.10
2018,06,11,16,59,16.10
2018,06,11,17,00,16.20
2018,06,11,17,01,16.30
2018,06,11,17,02,16.30
2018,06,11,17,03,16.30
2018,06,11,17,04,16.30
2018,06,11,17,05,16.30
2018,06,11,17,06,16.30
2018,06,11,17,07,16.30
2018,06,11,17,08,16.30
2018,06,11,17,09,16.30
2018,06,11,17,10,16.30
2018,06,11,17,11,16.30
2018,06,11,17,12,16.30
2018,06,11,17,13,16.30
2018,06,11,17,14,16.40
2018,06,11,17,15,16.50
2018,06,11,17,16,16.60
2018,06,11,17,17,16.70
2018,06,11,17,18,16.80
2018,06,11,17,19,16.80
2018,06,11,17,20,16.90
2018,06,11,17,21,17.10
2018,06,11,17,22,17.30
2018,06,11,17,23,17.40
2018,06,11,17,24,17.50
2018,06,11,17,25,17.60
2018,06,11,17,26,17.70
2018,06,11,17,27,17.80
2018,06,11,17,28,17.80
2018,06,11,17,29,17.90
2018,06,11,17,30,18.00
2018,06,11,17,31,18.20
2018,06,11,17,32,18.30
2018,06,11,17,33,18.50
2018,06,11,17,34,18.60
2018,06,11,17,35,18.70
2018,06,11,17,36,18.80
2018,06,11,17,37,18.80
2018,06,11,17,38,18.90
2018,06,11,17,39,18.90
2018,06,11,17,40,18.90
2018,06,11,17,41,18.90
2018,06,11,17,42,18.90
2018,06,11,17,43,19.00
2018,06,11,17,44,19.10